[[{"header":{"parameterUnit":"m.s-1","parameterCategory":1,"la1":30.2991,"la2":30.254,"lo1":-89.0895,"lo2":-89.0444,"dy":0.0017,"dx":0.0017,"nx":28,"ny":28,"refTime":"2023-08-03T03:00:00:Z","depth":0,"parameterNumber":2,"parameterNumberName":"U-component_of_WINDS"},"data":[0,0,0,0,0,0,0,0,0,0,0,0,0,0,0,0,0,0,0,0,0,0,0,0,0,0,0,0,0,0,0,0,0,0,0,0,0,0,0,0,0,0,0,0,0,0,0,0,0,0,0,0,0,0,0,0,0,0,2.6492,2.6492,0,2.6531,2.6532,2.6532,2.6507,2.6505,2.6504,2.6503,2.6541,2.6543,2.6545,0,0,0,0,0,0,0,0,0,0,0,0,0,2.6391,2.6393,2.6492,2.6492,2.6493,2.6531,2.6532,2.6532,2.6507,2.6505,2.6504,2.6503,2.654,2.6543,2.6545,0,0,0,0,0,0,0,0,0,0,0,0,0,2.6433,2.6393,2.6492,2.6485,2.6485,2.6531,2.6532,2.6532,2.6507,2.6505,2.6504,2.6502,2.654,2.6543,2.6546,2.66,0,0,2.6555,2.6557,0,0,0,0,0,0,0,0,2.643,2.6436,2.6485,2.6485,2.6485,2.6512,2.651,2.6555,2.6507,2.6498,2.6503,2.6501,2.6533,2.6536,2.6548,2.6602,2.6604,2.6556,2.6558,2.6559,2.656,0,0,0,0,0,0,0,2.6428,2.6435,2.6507,2.6486,2.6486,2.6478,2.6482,2.6518,2.6525,2.6499,2.6497,2.6502,2.6532,2.6545,2.6548,2.6604,2.6556,2.6558,2.656,2.6562,2.6702,2.6704,0,0,0,0,0,0,2.6426,2.6432,2.6506,2.6508,2.6453,2.6482,2.6486,2.6505,2.6524,2.6526,2.6504,2.6501,2.654,2.6545,2.6549,2.6612,2.6559,2.6562,2.6564,2.67,2.6703,2.6705,0,0,0,0,0,0,2.6424,2.6432,2.6504,2.647,2.6479,2.6485,2.6507,2.6507,2.6519,2.6528,2.6529,2.6515,2.6539,2.6545,2.6587,2.6613,2.6563,2.6566,2.6698,2.6701,2.6704,2.6739,0,0,0,0,0,0,2.6421,2.6432,2.6454,2.6471,2.648,2.6543,2.6509,2.6509,2.6525,2.6522,2.6539,2.654,2.6538,2.6583,2.659,2.6616,2.6569,2.6696,2.67,2.6703,2.6736,2.6743,2.6749,0,0,0,0,0,2.6417,2.6463,2.6455,2.6464,2.6508,2.6544,2.655,2.6547,2.6527,2.6548,2.6554,2.654,2.661,2.6587,2.6596,2.6623,2.6694,2.6699,2.6703,2.6733,2.6741,2.6749,0,0,0,0,0,0,2.6448,2.6465,2.6457,2.6509,2.6525,2.654,2.6567,2.6557,2.6579,2.6575,2.6569,2.6574,2.6617,2.6625,2.66,2.6675,2.6649,2.6655,2.6669,2.6677,2.6683,2.668,2.6571,0,0,0,0,0,2.6461,2.649,2.6503,2.6548,2.6556,2.656,2.6576,2.6572,2.6589,2.6596,2.6604,2.662,2.6645,2.6662,2.6686,2.6737,2.6739,2.676,2.6767,2.6772,2.6777,2.6801,2.681,2.6718,2.6718,2.6718,0,0,2.6488,2.6501,2.652,2.6554,2.6567,2.6595,2.6566,2.6599,2.6619,2.66,2.664,2.6647,2.6664,2.671,2.6731,2.6718,2.6803,2.6777,2.6782,2.6783,2.6806,2.6815,2.6823,2.6721,2.6721,2.672,0,0,2.6551,2.6565,2.6602,2.6615,2.6634,2.6636,2.6645,2.6661,2.6665,2.6705,2.669,2.6714,2.6759,2.6771,2.6782,2.6848,2.6835,2.6856,2.689,2.6914,2.6921,2.6927,2.6948,2.6955,2.6861,2.6861,2.6861,0,2.6582,2.6626,2.6623,2.6655,2.6669,2.6654,2.669,2.6703,2.6729,2.6738,2.6723,2.6777,2.6788,2.6835,2.685,2.6862,2.687,2.6853,2.692,2.6927,2.6932,2.6952,2.696,2.6863,2.6863,2.6863,2.6863,0,2.6661,2.6691,2.6719,2.6743,2.6761,2.6796,2.6796,2.6814,2.6809,2.6811,2.6851,2.6863,2.6888,2.6899,2.6895,2.6945,2.6936,2.6921,2.6893,2.6943,2.6961,2.6969,2.6866,2.6866,2.6865,2.6864,0,0,2.6744,2.6766,2.6776,2.6785,2.6805,2.6827,2.686,2.6884,2.6898,2.6917,2.6942,2.6979,2.6964,2.6978,2.6974,2.6996,2.7043,2.6978,2.6978,2.6987,2.7096,2.7105,2.7114,2.7035,2.7037,2.7038,2.7094,0,2.6806,2.6863,2.6861,2.6914,2.6939,2.6925,2.6953,2.6966,2.697,2.6991,2.6995,2.702,2.7001,2.7008,2.7029,2.7033,2.7064,2.7029,2.7056,2.7057,2.705,2.7124,2.7134,2.7186,2.7101,2.7102,2.7103,0,2.6886,2.6906,2.6961,2.6974,2.6984,2.701,2.703,2.7052,2.7067,2.7067,2.7082,2.7074,2.7105,2.7078,2.7119,2.7095,2.7106,2.711,2.7111,2.7112,2.7082,2.7124,2.7203,2.721,2.7115,2.7114,2.7113,0,2.6937,2.6978,2.7016,2.7025,2.7042,2.7059,2.7067,2.7079,2.7093,2.7111,2.712,2.7141,2.7153,2.7169,2.7166,2.7147,2.7207,2.7181,2.7206,2.7206,2.7217,2.7216,2.7297,2.7229,2.7229,2.7229,2.7229,0,2.7005,2.7039,2.7038,2.7061,2.7098,2.7094,2.713,2.7135,2.7147,2.7169,2.7158,2.7179,2.7175,2.7196,2.7194,2.7227,2.7233,2.7232,2.7231,2.7232,2.7232,2.7237,2.7233,2.7231,2.7231,2.723,2.723,0,2.7068,2.707,2.7109,2.7121,2.7125,2.7151,2.716,2.7181,2.7183,2.7211,2.7218,2.7221,2.7244,2.7244,2.7271,2.7269,2.7308,2.7304,2.7303,2.7301,2.7326,2.7322,2.7411,2.7421,2.7349,2.735,2.7351,0,2.711,2.7135,2.7149,2.7163,2.7172,2.7195,2.7209,2.7206,2.722,2.7238,2.7256,2.7278,2.7295,2.7333,2.7337,2.7357,2.7351,2.7381,2.7354,2.7353,2.7348,2.7346,2.7347,2.7386,2.7387,2.7387,2.7388,0,2.7183,2.7182,2.7202,2.7223,2.7239,2.7255,2.727,2.7282,2.728,2.7297,2.732,2.7334,2.736,2.7382,2.7401,2.7407,2.7396,2.7396,2.7403,2.7403,2.74,2.7399,2.7314,2.7394,2.7393,2.7393,2.7392,2.7392,2.7234,2.7255,2.7267,2.729,2.73,2.7314,2.7333,2.7337,2.7357,2.7378,2.7375,2.7401,2.7412,2.7436,2.7444,2.7463,2.7453,2.7463,2.7465,2.7467,2.7468,2.7399,2.7467,2.7467,2.7467,2.7467,2.7467,0,2.7304,2.7311,2.7332,2.7352,2.7369,2.7358,2.7373,2.7388,2.7411,2.7423,2.744,2.7466,2.7486,2.7491,2.751,2.7524,2.752,2.7529,2.7527,2.7528,2.7478,2.7469,2.7533,2.7533,2.7533,2.7533,2.7532,2.7532,2.7342,2.7375,2.7375,2.7413,2.7419,2.7444,2.7453,2.7465,2.7474,2.7503,2.752,2.7524,2.7532,2.7552,2.7569,2.757,2.7576,2.7587,2.7586,2.7539,2.7532,2.7525,2.7517,2.7589,2.7589,2.7634,2.7634,2.7635]},{"header":{"parameterUnit":"m.s-1","parameterCategory":1,"la1":30.2991,"la2":30.254,"lo1":-89.0895,"lo2":-89.0444,"dy":0.0017,"dx":0.0017,"nx":28,"ny":28,"refTime":"2023-08-03T03:00:00:Z","depth":0,"parameterNumber":3,"parameterNumberName":"V-component_of_WINDS"},"data":[0,0,0,0,0,0,0,0,0,0,0,0,0,0,0,0,0,0,0,0,0,0,0,0,0,0,0,0,0,0,0,0,0,0,0,0,0,0,0,0,0,0,0,0,0,0,0,0,0,0,0,0,0,0,0,0,0,0,3.7624,3.7625,0,3.7669,3.767,3.767,3.7627,3.7625,3.7624,3.7622,3.7664,3.7667,3.767,0,0,0,0,0,0,0,0,0,0,0,0,0,3.7496,3.7498,3.7624,3.7625,3.7625,3.7669,3.767,3.767,3.7627,3.7625,3.7623,3.7621,3.7663,3.7667,3.767,0,0,0,0,0,0,0,0,0,0,0,0,0,3.7547,3.7499,3.7624,3.7609,3.7608,3.7669,3.767,3.767,3.7628,3.7625,3.7623,3.762,3.7662,3.7666,3.767,3.7747,0,0,3.7683,3.7684,0,0,0,0,0,0,0,0,3.7544,3.7552,3.7611,3.761,3.7609,3.764,3.764,3.7696,3.7628,3.762,3.7622,3.7619,3.7658,3.7662,3.7676,3.7749,3.775,3.7683,3.7685,3.7687,3.7688,0,0,0,0,0,0,0,3.7541,3.755,3.7642,3.7612,3.7611,3.7598,3.7603,3.765,3.7653,3.7621,3.7618,3.7624,3.7657,3.7672,3.7677,3.7751,3.7683,3.7687,3.7689,3.7691,3.7885,3.7888,0,0,0,0,0,0,3.7539,3.7547,3.764,3.7643,3.757,3.7603,3.7608,3.7633,3.7652,3.7653,3.7626,3.7622,3.7667,3.7672,3.7678,3.7767,3.7687,3.7691,3.7693,3.7883,3.7886,3.7889,0,0,0,0,0,0,3.7537,3.7548,3.7639,3.7594,3.7605,3.7608,3.7636,3.7635,3.765,3.7656,3.7656,3.7642,3.7665,3.7672,3.773,3.7768,3.7693,3.7697,3.7879,3.7884,3.7887,3.7946,0,0,0,0,0,0,3.7533,3.7548,3.7578,3.7595,3.7607,3.7691,3.7638,3.7638,3.7658,3.7653,3.7671,3.7671,3.7663,3.7724,3.7734,3.7772,3.77,3.7876,3.7881,3.7886,3.7941,3.7952,3.7961,0,0,0,0,0,3.7529,3.7592,3.758,3.7591,3.7646,3.7693,3.77,3.7691,3.7661,3.7691,3.7694,3.7671,3.7762,3.773,3.7741,3.7781,3.7874,3.788,3.7886,3.7936,3.795,3.7961,0,0,0,0,0,0,3.7578,3.7594,3.7581,3.7652,3.7672,3.7686,3.7723,3.7706,3.7733,3.7727,3.7713,3.7718,3.7778,3.7785,3.7749,3.7854,3.7813,3.7821,3.7848,3.786,3.787,3.7867,3.7703,0,0,0,0,0,3.7598,3.7637,3.7648,3.771,3.7721,3.772,3.7741,3.7732,3.7751,3.7759,3.7767,3.7785,3.7818,3.784,3.787,3.7942,3.7944,3.7975,3.7985,3.7993,3.8,3.8037,3.805,3.7909,3.7909,3.7909,0,0,3.7638,3.7652,3.7677,3.772,3.7734,3.7773,3.7728,3.7771,3.7798,3.7765,3.7819,3.7826,3.7845,3.7909,3.7938,3.7917,3.804,3.8001,3.8008,3.801,3.8044,3.8058,3.8069,3.7913,3.7913,3.7912,0,0,3.7731,3.7746,3.7798,3.7813,3.7835,3.7835,3.7847,3.7864,3.7867,3.7922,3.7897,3.7929,3.7986,3.8,3.8015,3.8111,3.809,3.8122,3.8174,3.821,3.8221,3.8231,3.8263,3.8275,3.8129,3.8129,3.8129,0,3.7777,3.7836,3.7827,3.7871,3.789,3.7862,3.7913,3.7928,3.7959,3.7972,3.7948,3.8018,3.803,3.8096,3.8119,3.8133,3.8145,3.8119,3.822,3.823,3.8239,3.8269,3.8282,3.8133,3.8132,3.8132,3.8132,0,3.7891,3.7932,3.7971,3.8002,3.8025,3.8073,3.8069,3.8093,3.8082,3.8083,3.8137,3.815,3.8182,3.8197,3.8187,3.8261,3.8247,3.8223,3.818,3.8256,3.8284,3.8296,3.8138,3.8137,3.8136,3.8135,0,0,3.8016,3.8041,3.8055,3.8068,3.809,3.812,3.8166,3.8198,3.8218,3.824,3.8276,3.8325,3.8301,3.8318,3.8309,3.834,3.8413,3.8311,3.8311,3.8328,3.8493,3.8511,3.8524,3.8399,3.8402,3.8403,3.8491,0,3.8108,3.8188,3.818,3.8256,3.8292,3.8266,3.8305,3.8321,3.8323,3.8353,3.8354,3.8388,3.8356,3.8366,3.8396,3.8398,3.8446,3.8392,3.8431,3.8432,3.8425,3.854,3.8559,3.8641,3.8502,3.8504,3.8505,0,3.8226,3.8252,3.8331,3.8346,3.8361,3.8397,3.8424,3.8454,3.8471,3.847,3.8488,3.8473,3.8516,3.8474,3.8533,3.8496,3.8512,3.8515,3.8518,3.852,3.8472,3.8543,3.8667,3.8678,3.8523,3.8522,3.8521,0,3.8306,3.8362,3.8416,3.8428,3.8447,3.8472,3.8481,3.8496,3.8515,3.8539,3.855,3.8579,3.8594,3.8615,3.8607,3.8578,3.8667,3.8624,3.8665,3.8665,3.8684,3.8683,3.881,3.8697,3.8697,3.8697,3.8696,0,3.8409,3.8458,3.8452,3.8485,3.8538,3.8528,3.8581,3.8586,3.8599,3.8631,3.8611,3.8641,3.8629,3.8658,3.8652,3.8701,3.8708,3.8707,3.8704,3.8708,3.8708,3.8717,3.871,3.87,3.8699,3.8698,3.8698,0,3.8507,3.8506,3.8563,3.8576,3.858,3.8619,3.8629,3.8659,3.8659,3.87,3.8709,3.8709,3.8742,3.8736,3.8773,3.8769,3.8828,3.882,3.8823,3.882,3.886,3.8856,3.8997,3.9014,3.8891,3.8893,3.8894,0,3.8572,3.8609,3.8626,3.8647,3.8658,3.8691,3.871,3.8701,3.8721,3.8743,3.877,3.8801,3.8826,3.8879,3.8881,3.8909,3.8899,3.8947,3.8903,3.8905,3.8898,3.8895,3.8898,3.8955,3.8956,3.8958,3.8958,0,3.8686,3.8683,3.8713,3.8741,3.8765,3.8787,3.8806,3.8824,3.8816,3.884,3.8874,3.8893,3.893,3.896,3.8986,3.8993,3.8974,3.8972,3.8983,3.8986,3.8985,3.8984,3.8844,3.8969,3.8968,3.8967,3.8966,3.8966,3.8768,3.8799,3.8816,3.8848,3.8862,3.8881,3.8909,3.8913,3.8941,3.8971,3.8963,3.9001,3.9016,3.9048,3.9058,3.9086,3.9068,3.9084,3.9088,3.9091,3.9095,3.8983,3.9091,3.909,3.909,3.909,3.909,0,3.888,3.8889,3.8919,3.8947,3.8972,3.8953,3.8974,3.8995,3.9029,3.9045,3.9069,3.9107,3.9136,3.9141,3.9168,3.9189,3.9181,3.9197,3.9194,3.9196,3.9111,3.9098,3.9203,3.9203,3.9203,3.9203,3.9203,3.9203,3.894,3.8991,3.899,3.9046,3.9054,3.9092,3.9105,3.9121,3.9133,3.9177,3.9201,3.9204,3.9214,3.9242,3.9267,3.9267,3.9278,3.9296,3.9293,3.9213,3.9202,3.9191,3.9179,3.9299,3.9299,3.9375,3.9376,3.9376]}]]